Regional Weather Roundup
Issued by NWS Grand Forks, ND

Home | Current Version | Previous Version | Graphics & Text | Print | Product List | Glossary On
Versions: 1 2 3 4 5 6 7 8 9 10 11 12 13 14 15 16 17 18 19 20 21 22 23 24 25 26 27 28 29 30 31 32 33 34 35 36 37 38 39 40 41 42 43 44 45 46 47 48 49 50
000
ASUS43 KFGF 251531
RWRFGF
PRAIRIE TO PINES  WEATHER ROUNDUP
NATIONAL WEATHER SERVICE EASTERN NORTH DAKOTA/GRAND FORKS ND
1000 AM CDT SUN JUN 25 2017

 **SATELLITE DATA USED TO AUGMENT SKY COVER AT AUTOMATED STATIONS**
 *****  WEATHER ACROSS EASTERN NORTH DAKOTA  *****

CITY           SKY/WX    TMP DP  RH WIND       PRES   REMARKS
GRAND FORKS    PTSUNNY   61  47  59 NW10      30.23S
GRAND FRKS AFB PTSUNNY   60  46  60 N8        30.24S
DEVILS LAKE    PTSUNNY   56  45  66 N7        30.26S
FARGO          FAIR      60  42  51 NW13      30.24S
WAHPETON ARPT  FAIR      59  36  41 N15       30.25S
$$

 ***** WEATHER ACROSS CENTRAL AND WESTERN NORTH DAKOTA  *****

CITY           SKY/WX    TMP DP  RH WIND       PRES   REMARKS
BISMARCK       CLOUDY    52  43  71 S5        30.31S
MINOT          CLOUDY    59  46  62 W6        30.24F
JAMESTOWN      FAIR      60  45  57 NW7       30.26S
MINOT AFB      PTSUNNY   57  46  66 NW7       30.24S
GARRISON         N/A     50  48  93 N13       30.26F
WILLISTON      CLOUDY    56  50  80 SW9       30.28F
DICKINSON      FAIR      58  33  39 NE13      30.27F
HETTINGER      FAIR      66  34  30 SW18      30.29F
$$

 *****  OTHER AIRPORT OBSERVATIONS IN OUR AREA  *****

CITY           SKY/WX    TMP DP  RH WIND       PRES   REMARKS
WALHALLA       NOT AVBL
GRAFTON AIRPOR FAIR      59  43  55 NW10      30.25F
VALLEY CITY AR FAIR      61  46  59 NW10      30.27S
CANDO          NOT AVBL
CAVALIER APRT  NOT AVBL
GWINNER        SUNNY     61  46  59 NW12      30.27S
SHEYENNE NWR     N/A     61  45  55 NW7       29.95S
ROLLA            N/A     55  45  67 N8        30.26S
 ***** THE ABOVE OBSERVATIONS ARE NON NWS ARE NOT QUALITY
       CONTROLLED AND MAY MIS-REPORT RAIN FOR SNOW...
$$

  *****  WEATHER ACROSS NORTHERN MINNESOTA  *****

CITY           SKY/WX    TMP DP  RH WIND       PRES   REMARKS
FLAG ISLAND    PTSUNNY   54  46  76 NW10      30.15S
WARROAD        FAIR      55  50  82 W12       30.18S
ROSEAU         FAIR      55  48  76 NW6       30.18F
HALLOCK        FAIR      57  46  67 NW15      30.22S
THF RVR FALLS  FAIR      56  42  59 NW16      30.22S
BAUDETTE       LGT RAIN  54  49  83 NW10      30.15S
WASKISH        CLOUDY    54  48  82 NW8       30.16S
CROOKSTON      FAIR      57  45  62 NW10      30.24S
STEPHEN NDAWN    N/A     57  43  58 NW12        N/A
GREENBUSH NDAW   N/A     55  46  71 NW12        N/A
$$
  *****  WEATHER ACROSS CENTRAL AND WEST MINNESOTA  *****

CITY           SKY/WX    TMP DP  RH WIND       PRES   REMARKS
FOSSTON        FAIR      55  46  71 NW14G21   30.21S
BEMIDJI        PTSUNNY   57  46  67 NW15      30.17S
PARK RAPIDS    FAIR      57  41  55 NW16      30.18R
ELBOW LAKE     FAIR      56  42  60 NW15G21   30.24F
WADENA         PTSUNNY   55  45  67 NW17G24   30.19S
DETROIT LAKES  FAIR      55  43  62 NW14G20   30.23S
MOORHEAD       FAIR      61  43  51 NW14      30.25S
FERGUS FALLS   FAIR      57  43  58 N14G25    30.22F
MORRIS MN      FAIR      61  43  51 N18       30.23S
STAPLES        PTSUNNY   57  43  58 NW16      30.18R
$$
  *****  WEATHER ELSEWHERE ACROSS MINNESOTA  *****

CITY           SKY/WX    TMP DP  RH WIND       PRES   REMARKS
DULUTH         LGT RAIN  54  52  93 NW15G21   30.03S
INTRNTL FALLS  FAIR      52  46  80 NW9       30.12S
ELY            RAIN      52  50  93 CALM      30.04S
CLOQUET        LGT RAIN  54  48  82 NW10G17   30.07R
WHEATON        FAIR      61  39  44 NW15G21   30.27S
BRAINERD       PTSUNNY   57  46  66 NW18G25   30.16R
HIBBING        RAIN      48  47  96 NW17G29   30.09R FOG
ALEXANDRIA     FAIR      58  44  60 NW14      30.22R
SAINT CLOUD    PTSUNNY   58  47  66 NW21G28   30.16S
MINNEAPOLIS    CLOUDY    57  49  74 NW20      30.15R
$$

  *****  WEATHER ACROSS SOUTH DAKOTA  *****

CITY           SKY/WX    TMP DP  RH WIND       PRES   REMARKS
SIOUX FALLS    FAIR      61  48  62 NW12      30.30S
BROOKINGS      FAIR      58  45  62 NW14G22   30.29S
WATERTOWN      FAIR      59  45  59 NW14      30.28R
HURON          FAIR      62  44  51 N9        30.32S
SISSETON         N/A     61  45  55 NW14      30.26R
ABERDEEN       FAIR      62  43  49 W9        30.30S
MITCHELL       NOT AVBL
PIERRE         NOT AVBL
MOBRIDGE       FAIR      63  41  44 VRB3      30.28F
RAPID CITY     FAIR      64  34  32 S12       30.34F
$$

  *****  SOME WEATHER IN NEARBY STATES *****

CITY           SKY/WX    TMP DP  RH WIND       PRES   REMARKS
GLASGOW MT     FAIR      64  39  39 CALM      30.28R
GREAT FALLS MT FAIR      62  42  47 CALM      30.31F
CHEYENNE WY    CLOUDY    57  43  59 NE6       30.42S
SCOTTSBLUFF NE FAIR      65  37  35 S12       30.36F
OMAHA NE       FAIR      66  44  45 NW14      30.33R
DES MOINES IA  FAIR      65  47  52 NW16      30.24F
DAVENPORT IA   FAIR      64  49  57 W16G23    30.18R
CHICAGO IL     FAIR      66  48  52 W15       30.10S
EAU CLAIRE WI  CLOUDY    59  50  72 W13       30.08S
LA CROSSE WI   CLOUDY    63  52  67 W10       30.12R
$$

  *****  SOME NATIONAL WEATHER *****

CITY           SKY/WX    TMP DP  RH WIND       PRES   REMARKS
LA GUARDIA NY  PTSUNNY   82  51  34 W8        29.98S
RALEIGH NC     PTSUNNY   79  65  62 N8        30.09R
ATLANTA GA     PTSUNNY   73  63  70 NW12      30.16S
NEW ORLEANS LA PTSUNNY   82  75  79 NE7       30.12S
OKLAHOMA CITY  FAIR      79  52  38 SE10      30.27S
ALBUQUERQUE NM FAIR      73  53  49 CALM      30.32S
SALT LAKE CITY FAIR      76  42  29 NE3       30.20R
LOS ANGELES CA FAIR      69  62  78 CALM      29.91R
BOISE ID       FAIR      72  42  34 SE12      30.14R
SEATTLE WA     PTSUNNY   70  55  59 N7        29.95F
$$

*** WEATHER ACROSS MANITOBA...SASKATCHEWAN AND ONTARIO ***
                ***ONTARIO***

CITY           SKY/WX    TMP DP  RH WIND       PRES   REMARKS
GERALDTON      PTSUNNY   54  41  62 NE6       30.05S
THUNDER BAY    PTSUNNY   59  48  67 E9        30.01S
SIOUX LOOKOUT  PTSUNNY   54  41  62 VRB6      30.10S
TORONTO        PTSUNNY   70  48  46 SW15G22   29.92F
BIG TROUT LK   SUNNY     57  43  58 S5        30.05S
PICKLE LAKE    PTSUNNY   55  37  50 NW5       30.09S
DRYDEN         PTSUNNY   54  43  66 N9G17     30.11S
KENORA         LGT RAIN  50  45  81 N7        30.15S
$$
                *** MANITOBA***

CITY           SKY/WX    TMP DP  RH WIND       PRES   REMARKS
BRANDON        MOSUNNY   57  41  54 N6        30.26S
DAUPHIN        SUNNY     59  46  63 N8        30.26R
ISLAND LAKE    PTSUNNY   59  41  51 W5        30.12S
PILOT MOUND      N/A     54  45  71 N7          N/A
THE PAS        MOSUNNY   59  41  51 NW6       30.23S
THOMPSON       PTSUNNY   57  46  67 NW8       30.11S
WINNIPEG       PTSUNNY   55  45  67 NW9       30.22F
LYNN LAKE      PTSUNNY   59  43  55 N17G24    30.17F
CHURCHILL      MOSUNNY   46  41  81 N18       30.05R
GILLAM         PTSUNNY   57  46  67 W7        30.04R
$$
                ***SASKATCHEWAN***

CITY           SKY/WX    TMP DP  RH WIND       PRES   REMARKS
ESTEVAN        MOSUNNY   59  48  67 VRB2      30.26R
KINDERSLEY     MOSUNNY   57  48  72 E5        30.30R
LLOYDMINSTER   MOSUNNY   59  50  72 S7        30.29S
PRINCE ALBERT  MOSUNNY   61  43  51 SW3       30.31S
REGINA         MOSUNNY   61  45  55 E6        30.28S
YORKTON        SUNNY     57  45  62 NW5       30.28S
N. BATTLEFORD  SUNNY     55  54  94 VRB2      30.32S
LA RONGE       MOSUNNY   63  39  42 VRB3      30.27S
SASKATOON      SUNNY     61  46  59 SE9       30.30S
SWIFT CURRENT  SUNNY     57  50  77 N6        30.29R
$$
NOTE: THESE ARE AUTOMATED STATIONS WITH LIMITED QUALITY CONTROL
      "FAIR" INDICATES FEW OR NO CLOUDS BELOW 12,000 FEET WITH NO
      SIGNIFICANT WEATHER AND/OR OBSTRUCTIONS TO VISIBILITY.
      SKY/WX - SKY CONDITION AND SIGNIFICANT WEATHER.
      TMP - AIR TEMPERATURE.    DP   - DEWPOINT TEMPERATURE.
      RH  - RELATIVE HUMIDITY.  PRES - PRESSURE.
      HX  - HEAT INDEX.         WCI  - WIND CHILL INDEX.
$



USA.gov is the U.S. government's official web portal to all federal, state and local government web resources and services.